Tracking 23612 objects as of 17-Sep-2021
HD Live streaming from Space Station
objects crossing your sky now
Track INSPIRATION-4

USA 229 DEB

Track USA 229 DEB now!
10-day predictions
USA 229 DEB is classified as:


NORAD ID: 37391
Int'l Code: 2011-014B
Perigee: 962.3 km
Apogee: 1,264.5 km
Inclination: 63.4 °
Period: 107.4 minutes
Semi major axis: 7484 km
RCS: Unknown
Launch date: April 15, 2011
Source: United States (US)
Launch site: AIR FORCE WESTERN TEST RANGE (AFWTR)

Note: This is SATELLITE DEBRIS
aabbcc
Your satellite tracking list
Your tracking list is empty




NASA's NSSDC Master Catalog

Two Line Element Set (TLE):
1 37391U 11014B   21220.90243267 0.00000000  00000-0  00000-0 0    03
2 37391  63.4479 123.0616 0201857 357.8083   2.1917 13.40813648    02
Source of the keplerian elements: McCants